[[{"header":{"parameterUnit":"m.s-1","parameterCategory":1,"la1":30.2991,"la2":30.254,"lo1":-89.0895,"lo2":-89.0444,"dy":0.0017,"dx":0.0017,"nx":28,"ny":28,"refTime":"2023-11-20T09:00:00:Z","depth":0,"parameterNumber":2,"parameterNumberName":"U-component_of_WINDS"},"data":[0,0,0,0,0,0,0,0,0,0,0,0,0,0,0,0,0,0,0,0,0,0,0,0,0,0,0,0,0,0,0,0,0,0,0,0,0,0,0,0,0,0,0,0,0,0,0,0,0,0,0,0,0,0,0,0,0,0,0.6235,0.6236,0,0.6304,0.6305,0.6306,0.6312,0.6311,0.631,0.631,0.6379,0.6382,0.6384,0,0,0,0,0,0,0,0,0,0,0,0,0,0.6108,0.611,0.6235,0.6236,0.6237,0.6304,0.6305,0.6306,0.6312,0.6311,0.631,0.6309,0.6378,0.6381,0.6385,0,0,0,0,0,0,0,0,0,0,0,0,0,0.6169,0.6111,0.6235,0.6248,0.625,0.6304,0.6305,0.6306,0.6312,0.6311,0.631,0.6309,0.6377,0.6381,0.6385,0.6431,0,0,0.6397,0.6398,0,0,0,0,0,0,0,0,0.6165,0.6173,0.6245,0.6247,0.6249,0.6298,0.6286,0.6348,0.6312,0.6288,0.6309,0.6308,0.6353,0.6359,0.6374,0.6434,0.6437,0.6397,0.6399,0.6401,0.6402,0,0,0,0,0,0,0,0.6161,0.617,0.6263,0.6246,0.6249,0.625,0.6258,0.6298,0.6326,0.629,0.6291,0.6299,0.6354,0.6371,0.6376,0.6438,0.6397,0.64,0.6403,0.6404,0.654,0.6541,0,0,0,0,0,0,0.6154,0.6167,0.626,0.6265,0.6204,0.6253,0.6262,0.6284,0.6326,0.6331,0.63,0.6299,0.6365,0.6372,0.6378,0.6436,0.6401,0.6405,0.6407,0.6539,0.654,0.6542,0,0,0,0,0,0,0.6152,0.6163,0.6258,0.6216,0.6228,0.6257,0.6281,0.6286,0.6302,0.6333,0.6338,0.6312,0.6364,0.6373,0.6418,0.6438,0.6406,0.641,0.6537,0.6539,0.6541,0.655,0,0,0,0,0,0,0.6148,0.6162,0.6179,0.6216,0.623,0.6296,0.6283,0.6288,0.6309,0.6308,0.6345,0.635,0.6364,0.6412,0.6422,0.6443,0.6413,0.6536,0.6538,0.6541,0.6548,0.6552,0.6556,0,0,0,0,0,0.6143,0.6179,0.618,0.6192,0.6253,0.6297,0.6305,0.632,0.631,0.6329,0.6349,0.6349,0.6434,0.6417,0.6428,0.645,0.6534,0.6537,0.654,0.6547,0.6552,0.6556,0,0,0,0,0,0,0.6143,0.6184,0.6186,0.6234,0.6262,0.6298,0.6322,0.6325,0.6356,0.6354,0.6371,0.638,0.6424,0.6442,0.6421,0.6497,0.6483,0.6489,0.6485,0.6489,0.6493,0.6488,0.6416,0,0,0,0,0,0.6149,0.6181,0.6215,0.6255,0.6269,0.6293,0.6312,0.6322,0.6351,0.6363,0.6386,0.6415,0.6448,0.647,0.6502,0.6551,0.6559,0.6572,0.6575,0.6578,0.6583,0.6611,0.6617,0.6552,0.6552,0.6552,0,0,0.616,0.6187,0.6206,0.6255,0.6278,0.6312,0.6303,0.6338,0.6363,0.6368,0.6413,0.6431,0.6464,0.6511,0.6533,0.6527,0.6603,0.6582,0.6584,0.6587,0.6614,0.6621,0.6626,0.6554,0.6553,0.6553,0,0,0.6199,0.6222,0.6258,0.6281,0.6316,0.6332,0.6341,0.6377,0.6389,0.6434,0.6439,0.6468,0.6525,0.6549,0.6568,0.6617,0.6619,0.6627,0.6646,0.6674,0.6679,0.6683,0.6702,0.6708,0.6631,0.6631,0.6631,0,0.6209,0.626,0.6276,0.6312,0.6334,0.634,0.6377,0.6399,0.6442,0.6457,0.6449,0.6522,0.6544,0.6598,0.661,0.6625,0.6636,0.6623,0.6677,0.6682,0.6686,0.6704,0.671,0.6632,0.6632,0.6632,0.6632,0,0.6271,0.6307,0.6331,0.6374,0.6399,0.6435,0.6456,0.6479,0.6486,0.6503,0.6549,0.6576,0.6614,0.6628,0.6635,0.6683,0.6678,0.6673,0.666,0.6693,0.671,0.6717,0.6633,0.6633,0.6633,0.6632,0,0,0.6311,0.6363,0.6372,0.6392,0.6431,0.6459,0.6495,0.6534,0.6553,0.6583,0.6614,0.6663,0.6659,0.6681,0.6691,0.6715,0.6753,0.6708,0.6709,0.6716,0.6808,0.6812,0.6819,0.6754,0.6756,0.6757,0.6806,0,0.6355,0.6421,0.6437,0.6493,0.6526,0.6533,0.6565,0.6593,0.661,0.664,0.6659,0.6693,0.6685,0.6699,0.6723,0.6743,0.6772,0.674,0.6784,0.6785,0.6776,0.6828,0.6831,0.6876,0.6812,0.6813,0.6814,0,0.6415,0.6447,0.6507,0.6543,0.6557,0.6586,0.6623,0.6652,0.6683,0.6694,0.6719,0.6727,0.6765,0.675,0.6803,0.6781,0.68,0.6813,0.6815,0.682,0.6802,0.6835,0.6891,0.6898,0.6824,0.6824,0.6823,0,0.6439,0.6497,0.6541,0.6557,0.66,0.662,0.6639,0.667,0.6692,0.6724,0.6739,0.6774,0.6794,0.6822,0.6839,0.6826,0.6892,0.6877,0.6902,0.6901,0.6915,0.6914,0.6976,0.6927,0.6927,0.6927,0.6926,0,0.6486,0.6523,0.6552,0.6579,0.662,0.6638,0.6678,0.6697,0.6725,0.6755,0.6764,0.6792,0.6813,0.6845,0.6858,0.6901,0.691,0.692,0.6923,0.6919,0.6918,0.6932,0.693,0.6928,0.6928,0.6928,0.6927,0,0.652,0.6541,0.6589,0.6627,0.6637,0.6666,0.6697,0.6724,0.6741,0.678,0.679,0.6817,0.6855,0.6875,0.6922,0.6931,0.6979,0.6981,0.6969,0.697,0.6994,0.6992,0.7067,0.7078,0.7021,0.7022,0.7022,0,0.6549,0.6577,0.6618,0.6639,0.6659,0.6693,0.6716,0.6735,0.6759,0.6798,0.682,0.6858,0.689,0.695,0.6973,0.701,0.7012,0.7036,0.7017,0.7013,0.7013,0.7012,0.7015,0.7039,0.704,0.704,0.7041,0,0.6598,0.6608,0.6641,0.6678,0.6706,0.6736,0.6765,0.6782,0.6806,0.6832,0.6871,0.6896,0.6945,0.6983,0.7021,0.704,0.7045,0.7046,0.7054,0.7051,0.7043,0.7048,0.6978,0.7044,0.7044,0.7044,0.7044,0.7043,0.6631,0.6657,0.669,0.6727,0.6751,0.6779,0.6806,0.6828,0.6861,0.6902,0.6911,0.6953,0.6984,0.7036,0.7057,0.709,0.7085,0.7096,0.7099,0.7101,0.7103,0.7038,0.7097,0.7096,0.7096,0.7096,0.7096,0,0.6681,0.6703,0.6737,0.6779,0.6808,0.681,0.6843,0.6868,0.6904,0.6934,0.6965,0.7011,0.7048,0.7075,0.7113,0.7135,0.7138,0.7144,0.7143,0.7147,0.7104,0.7094,0.7141,0.7141,0.7141,0.7141,0.7141,0.7141,0.671,0.6755,0.6768,0.6825,0.6847,0.6888,0.6907,0.6933,0.6957,0.7008,0.7039,0.7057,0.7086,0.7126,0.7161,0.7168,0.7182,0.7188,0.7195,0.7155,0.715,0.7146,0.7136,0.7191,0.7191,0.7236,0.7236,0.7236]},{"header":{"parameterUnit":"m.s-1","parameterCategory":1,"la1":30.2991,"la2":30.254,"lo1":-89.0895,"lo2":-89.0444,"dy":0.0017,"dx":0.0017,"nx":28,"ny":28,"refTime":"2023-11-20T09:00:00:Z","depth":0,"parameterNumber":3,"parameterNumberName":"V-component_of_WINDS"},"data":[0,0,0,0,0,0,0,0,0,0,0,0,0,0,0,0,0,0,0,0,0,0,0,0,0,0,0,0,0,0,0,0,0,0,0,0,0,0,0,0,0,0,0,0,0,0,0,0,0,0,0,0,0,0,0,0,0,0,5.9973,5.9974,0,6.0087,6.0088,6.0089,6.0087,6.0086,6.0084,6.0083,6.0195,6.0199,6.0203,0,0,0,0,0,0,0,0,0,0,0,0,0,5.975,5.9754,5.9972,5.9974,5.9975,6.0087,6.0088,6.009,6.0088,6.0086,6.0084,6.0082,6.0193,6.0198,6.0204,0,0,0,0,0,0,0,0,0,0,0,0,0,5.9853,5.9755,5.9972,5.9988,5.999,6.0086,6.0088,6.009,6.0088,6.0086,6.0083,6.0081,6.0192,6.0198,6.0204,6.0291,0,0,6.0225,6.0227,0,0,0,0,0,0,0,0,5.9847,5.9861,5.9984,5.9987,5.999,6.0071,6.0051,6.0157,6.0089,6.0051,6.0083,6.008,6.0155,6.0164,6.0191,6.0296,6.0301,6.0225,6.0229,6.0232,6.0234,0,0,0,0,0,0,0,5.984,5.9857,6.0018,5.9986,5.999,5.9988,6.0,6.0071,6.0114,6.0054,6.0054,6.0068,6.0156,6.0184,6.0193,6.0302,6.0225,6.0231,6.0235,6.0237,6.0488,6.049,0,0,0,0,0,0,5.983,5.9851,6.0014,6.0021,5.9912,5.9994,6.0008,6.0047,6.0113,6.0121,6.007,6.0067,6.0174,6.0185,6.0197,6.0306,6.0232,6.0238,6.0242,6.0485,6.0488,6.0491,0,0,0,0,0,0,5.9826,5.9845,6.0009,5.9936,5.9957,6.0,6.0044,6.005,6.0079,6.0125,6.0133,6.0091,6.0173,6.0188,6.0269,6.0309,6.0241,6.0247,6.0482,6.0486,6.049,6.0521,0,0,0,0,0,0,5.9819,5.9843,5.9877,5.9937,5.9961,6.008,6.0047,6.0054,6.0091,6.0089,6.0147,6.0155,6.0172,6.0259,6.0275,6.0317,6.0252,6.0478,6.0484,6.0489,6.0517,6.0526,6.0533,0,0,0,0,0,5.9811,5.9879,5.9879,5.9898,6.0004,6.0082,6.0096,6.0116,6.0094,6.0128,6.0159,6.0153,6.0302,6.0267,6.0285,6.033,6.0476,6.0482,6.0488,6.0513,6.0524,6.0533,0,0,0,0,0,0,5.9821,5.9887,5.9887,5.9977,6.0025,6.0082,6.0125,6.0127,6.018,6.0175,6.0197,6.021,6.0291,6.0318,6.0278,6.0419,6.0386,6.0396,6.0398,6.0409,6.0418,6.041,6.0258,0,0,0,0,0,5.9834,5.9893,5.9947,6.0021,6.0045,6.0081,6.0116,6.0128,6.0177,6.0196,6.0232,6.0279,6.0337,6.0374,6.0429,6.052,6.0534,6.056,6.0568,6.0575,6.0584,6.0637,6.065,6.0511,6.0511,6.0511,0,0,5.986,5.9904,5.9939,6.0024,6.0062,6.0123,6.0098,6.0162,6.0207,6.0205,6.0286,6.0314,6.0367,6.0454,6.0494,6.0479,6.0625,6.0582,6.0587,6.0593,6.0644,6.0657,6.0669,6.0515,6.0515,6.0514,0,0,5.994,5.9978,6.0046,6.0085,6.0144,6.0169,6.0185,6.0243,6.0263,6.0343,6.0344,6.0397,6.0495,6.0535,6.0568,6.0666,6.0663,6.0683,6.0727,6.0778,6.0789,6.0799,6.0837,6.085,6.0691,6.0691,6.0691,0,5.9965,6.0058,6.008,6.0146,6.0184,6.0188,6.0257,6.0293,6.0366,6.0392,6.0374,6.05,6.0536,6.0634,6.0658,6.0684,6.0704,6.0677,6.0786,6.0796,6.0806,6.0842,6.0856,6.0693,6.0693,6.0693,6.0693,0,6.0087,6.0152,6.0199,6.0273,6.0316,6.0383,6.0415,6.0455,6.0464,6.049,6.0573,6.0617,6.0683,6.0706,6.0714,6.0806,6.0796,6.0782,6.075,6.0821,6.0856,6.0869,6.0696,6.0696,6.0695,6.0694,0,0,6.0176,6.0264,6.0281,6.0316,6.0382,6.0432,6.0499,6.0566,6.0602,6.0652,6.071,6.0795,6.0784,6.0821,6.0833,6.0878,6.0957,6.0859,6.086,6.0878,6.1064,6.1076,6.1092,6.0955,6.0957,6.0959,6.1061,0,6.0265,6.0388,6.041,6.0517,6.0578,6.0583,6.0642,6.0689,6.0715,6.077,6.0798,6.0859,6.0838,6.0861,6.0906,6.0937,6.0995,6.093,6.101,6.1012,6.0999,6.1109,6.1122,6.1215,6.1074,6.1076,6.1078,0,6.0385,6.0443,6.0556,6.0618,6.0644,6.0697,6.0762,6.0814,6.0867,6.0884,6.0927,6.0935,6.1005,6.0969,6.1068,6.1023,6.1057,6.1078,6.1082,6.1091,6.1051,6.1125,6.1245,6.126,6.1099,6.1097,6.1096,0,6.0443,6.0547,6.063,6.0659,6.0732,6.077,6.0801,6.0853,6.0893,6.0949,6.0975,6.1037,6.1072,6.112,6.1144,6.1115,6.1242,6.1207,6.1258,6.1258,6.1286,6.1284,6.1416,6.1304,6.1303,6.1303,6.1303,0,6.0541,6.0611,6.0657,6.0708,6.0787,6.0812,6.0889,6.092,6.0966,6.1023,6.103,6.1083,6.1111,6.1168,6.1187,6.1268,6.1282,6.1298,6.1302,6.1299,6.1297,6.1322,6.1318,6.1307,6.1306,6.1305,6.1305,0,6.0619,6.0652,6.0743,6.0806,6.0823,6.0879,6.0932,6.0982,6.1009,6.1081,6.1099,6.1141,6.1209,6.1238,6.132,6.1334,6.1427,6.1425,6.1409,6.1412,6.1462,6.1458,6.1617,6.164,6.151,6.1511,6.1512,0,6.0681,6.0735,6.0805,6.0845,6.0879,6.0942,6.0984,6.1011,6.1054,6.1121,6.1163,6.1231,6.1288,6.1396,6.1434,6.1498,6.1499,6.1551,6.1509,6.1505,6.1504,6.1501,6.1508,6.1559,6.156,6.1561,6.1562,0,6.0788,6.0803,6.0864,6.0932,6.0982,6.1036,6.1088,6.112,6.1155,6.1203,6.1274,6.1319,6.1405,6.1474,6.154,6.1572,6.1574,6.1575,6.1591,6.1588,6.1579,6.1588,6.1433,6.1571,6.157,6.157,6.1569,6.1569,6.0862,6.0912,6.097,6.1038,6.1081,6.1131,6.1182,6.1217,6.1277,6.1352,6.1363,6.144,6.1494,6.1584,6.1619,6.1679,6.1666,6.1688,6.1694,6.17,6.1705,6.1567,6.1691,6.1691,6.169,6.169,6.169,0,6.0972,6.1011,6.1073,6.1149,6.1203,6.1201,6.126,6.1305,6.1373,6.1424,6.1481,6.1564,6.1632,6.1675,6.1743,6.1783,6.1786,6.18,6.1799,6.1807,6.1711,6.1692,6.1798,6.1797,6.1797,6.1797,6.1797,6.1797,6.1036,6.1122,6.1144,6.1252,6.1289,6.1366,6.1401,6.1447,6.1489,6.1582,6.1639,6.1668,6.1716,6.1789,6.1851,6.1862,6.1888,6.1904,6.1914,6.1824,6.1813,6.1802,6.1785,6.1908,6.1908,6.2006,6.2006,6.2007]}]]